Cross City, FL

3:00 AM EST on December 16, 2019 (GMT -0500)
Cross City

Weather History for KCTY - October, 2019

Change the Weather History Date:

Tuesday, October 1, 2019

  Actual Average Record
Temperature  
Mean Temperature 82 °F 75 °F  
Max Temperature 93 °F 86 °F 92 °F (2018)
Min Temperature 70 °F 64 °F 46 °F (2001)
Degree Days  
Heating Degree Days 0 0  
Month to date heating degree days 0  
Since 1 July heating degree days 0  
Cooling Degree Days 16 10  
Month to date cooling degree days 10  
Year to date cooling degree days 2352  
Growing Degree Days 32 (Base 50)    
Moisture  
Dew Point 71 °F    
Average Humidity 75    
Maximum Humidity 99    
Minimum Humidity 38    
Precipitation  
Precipitation 0.00 in 0.17 in 0.29 in (2002)
Month to date precipitation 0.17  
Year to date precipitation 40.00  
Sea Level Pressure  
Sea Level Pressure 30.02 in    
Wind  
Wind Speed 5 mph (NE)    
Max Wind Speed 14 mph    
Max Gust Speed 21 mph    
Visibility 9 miles    
Events      
T = Trace of Precipitation, MM = Missing Value Source: NWS Daily Summary

Daily Weather History Graph

Daily Weather History Graph

Search for Another Location

Airport or City:

Astronomy

Oct. 01, 2019 Rise Set
Actual Time 7:25 AM EDT 7:18 PM EDT
Civil Twilight 7:01 AM EDT 7:41 PM EDT
Nautical Twilight 6:34 AM EDT 8:09 PM EDT
Astronomical Twilight 6:06 AM EDT 8:37 PM EDT
Moon 10:27 AM EDT (10/1) 9:45 PM EDT (10/1)
Length of Visible Light 12h 40m
Length of Day
11h 52m
Waxing Crescent, 12% of the Moon is Illuminated
Oct 1
Waxing Crescent
Oct 5
First Quarter
Oct 13
Full
Oct 21
Last Quarter
Oct 27
New

Hourly Weather History & Observations

Time (EDT) Temp. Heat Index Dew Point Humidity Pressure Visibility Wind Dir Wind Speed Gust Speed Precip Events Conditions
12:15 AM 73.8 °F - 69.3 °F 86% 30.06 in 10.0 mi Calm Calm - N/A   Unknown
12:35 AM 73.4 °F - 69.8 °F 88% 30.05 in 10.0 mi East 4.6 mph - N/A   Unknown
12:55 AM 75.0 °F - 70.2 °F 85% 30.05 in 10.0 mi Calm Calm - N/A   Unknown
1:15 AM 72.5 °F - 69.4 °F 90% 30.04 in 10.0 mi Calm Calm - N/A   Unknown
1:35 AM 71.4 °F - 69.1 °F 92% 30.04 in 10.0 mi North 3.5 mph - N/A   Unknown
1:55 AM 72.1 °F - 69.6 °F 92% 30.03 in 10.0 mi NNE 3.5 mph - N/A   Unknown
2:15 AM 72.5 °F - 70.0 °F 92% 30.03 in 10.0 mi NNE 4.6 mph - N/A   Unknown
2:35 AM 72.5 °F - 70.2 °F 92% 30.03 in 10.0 mi NE 3.5 mph - N/A   Unknown
2:55 AM 72.9 °F - 70.3 °F 92% 30.02 in 10.0 mi NE 3.5 mph - N/A   Unknown
3:15 AM 71.8 °F - 69.6 °F 93% 30.02 in 10.0 mi North 4.6 mph - N/A   Unknown
3:35 AM 71.6 °F - 70.0 °F 95% 30.01 in 10.0 mi NNE 4.6 mph - N/A   Unknown
3:55 AM 71.8 °F - 70.5 °F 96% 30.01 in 7.0 mi North 4.6 mph - N/A   Unknown
4:15 AM 71.8 °F - 70.5 °F 96% 30.00 in 7.0 mi Calm Calm - N/A   Mist
4:35 AM 71.8 °F - 70.7 °F 96% 30.00 in 5.0 mi NNE 3.5 mph - N/A   Mist
4:55 AM 71.4 °F - 70.3 °F 96% 30.00 in 5.0 mi North 3.5 mph - N/A   Mist
5:15 AM 71.2 °F - 70.5 °F 98% 30.00 in 4.0 mi NNE 3.5 mph - N/A   Mist
5:35 AM 70.9 °F - 70.3 °F 98% 30.00 in 4.0 mi NNE 3.5 mph - N/A   Mist
5:55 AM 71.6 °F - 70.9 °F 98% 30.00 in 3.5 mi NNE 3.5 mph - N/A   Mist
6:15 AM 71.6 °F - 71.1 °F 98% 30.01 in 3.5 mi Calm Calm - N/A   Mist
6:55 AM 71.6 °F - 71.2 °F 99% 30.02 in 3.0 mi Calm Calm - N/A   Mist
7:15 AM 71.6 °F - 71.1 °F 98% 30.02 in 3.0 mi NNE 3.5 mph - N/A   Mist
7:35 AM 72.7 °F - 72.3 °F 99% 30.02 in 2.5 mi NE 3.5 mph - N/A   Mist
7:55 AM 73.4 °F - 72.9 °F 98% 30.03 in 2.5 mi NE 4.6 mph - N/A   Overcast
8:15 AM 73.8 °F - 73.4 °F 99% 30.04 in 2.5 mi NE 4.6 mph - N/A   Overcast
8:35 AM 74.1 °F - 73.6 °F 98% 30.05 in 4.0 mi NE 5.8 mph - N/A   Overcast
8:55 AM 75.4 °F - 74.1 °F 96% 30.05 in 5.0 mi NE 5.8 mph - N/A   Overcast
9:15 AM 76.3 °F - 73.9 °F 92% 30.05 in 7.0 mi NE 6.9 mph - N/A   Unknown
9:35 AM 78.1 °F - 74.3 °F 88% 30.06 in 10.0 mi NNE 8.1 mph - N/A   Unknown
9:55 AM 80.1 °F 84.8 °F 74.5 °F 83% 30.06 in 10.0 mi NNE 8.1 mph - N/A   Unknown
10:15 AM 81.7 °F 87.8 °F 74.7 °F 79% 30.06 in 10.0 mi East 8.1 mph - N/A   Unknown
10:35 AM 82.8 °F 89.2 °F 73.9 °F 75% 30.07 in 10.0 mi ENE 8.1 mph - N/A   Unknown
10:55 AM 83.8 °F 90.4 °F 73.4 °F 71% 30.07 in 10.0 mi ENE 6.9 mph - N/A   Unknown
11:15 AM 86.0 °F 92.6 °F 72.7 °F 64% 30.06 in 10.0 mi East 8.1 mph - N/A   Unknown
11:35 AM 86.5 °F 93.8 °F 72.9 °F 64% 30.06 in 10.0 mi NE 8.1 mph - N/A   Unknown
11:55 AM 87.4 °F 93.1 °F 71.2 °F 58% 30.06 in 10.0 mi ENE 10.4 mph - N/A   Unknown
12:15 PM 88.0 °F 93.4 °F 70.7 °F 56% 30.06 in 10.0 mi ENE 9.2 mph - N/A   Unknown
12:35 PM 87.6 °F 92.7 °F 70.3 °F 56% 30.05 in 10.0 mi NE 11.5 mph 19.6 mph N/A   Mostly Cloudy
12:55 PM 87.8 °F 92.6 °F 69.8 °F 55% 30.04 in 10.0 mi NE 10.4 mph - N/A   Scattered Clouds
1:15 PM 87.1 °F 91.6 °F 69.4 °F 56% 30.03 in 10.0 mi ENE 10.4 mph - N/A   Scattered Clouds
1:35 PM 88.2 °F 92.5 °F 69.1 °F 53% 30.03 in 10.0 mi ENE 11.5 mph - N/A   Scattered Clouds
1:55 PM 91.4 °F 95.8 °F 68.5 °F 47% 30.01 in 10.0 mi ENE 12.7 mph 18.4 mph N/A   Unknown
2:15 PM 91.6 °F 96.7 °F 69.4 °F 48% 30.01 in 10.0 mi ENE 10.4 mph 18.4 mph N/A   Unknown
2:35 PM 92.5 °F 97.9 °F 69.6 °F 47% 30.00 in 10.0 mi NE 13.8 mph 20.7 mph N/A   Unknown
2:55 PM 91.0 °F 94.7 °F 67.8 °F 46% 29.99 in 10.0 mi ENE 8.1 mph - N/A   Unknown
3:15 PM 91.8 °F 96.0 °F 68.4 °F 46% 29.99 in 10.0 mi ENE 9.2 mph 19.6 mph N/A   Unknown
3:35 PM 91.4 °F 95.8 °F 68.7 °F 47% 29.98 in 10.0 mi NE 10.4 mph - N/A   Unknown
3:55 PM 91.9 °F 96.4 °F 68.5 °F 46% 29.97 in 10.0 mi NE 11.5 mph 19.6 mph N/A   Unknown
4:15 PM 91.6 °F 96.2 °F 68.7 °F 47% 29.97 in 10.0 mi NE 12.7 mph 20.7 mph N/A   Unknown
4:35 PM 91.0 °F 95.2 °F 68.2 °F 47% 29.96 in 10.0 mi ENE 11.5 mph 16.1 mph N/A   Unknown
4:55 PM 90.9 °F 94.8 °F 68.4 °F 47% 29.96 in 10.0 mi ENE 11.5 mph 17.3 mph N/A   Unknown
5:15 PM 90.9 °F 94.8 °F 67.8 °F 47% 29.96 in 10.0 mi East 11.5 mph 18.4 mph N/A   Unknown
5:35 PM 90.3 °F 94.3 °F 68.4 °F 48% 29.96 in 10.0 mi NE 9.2 mph - N/A   Unknown
5:55 PM 89.6 °F 93.9 °F 68.5 °F 50% 29.96 in 10.0 mi ENE 9.2 mph - N/A   Unknown
6:15 PM 88.2 °F 92.5 °F 69.1 °F 53% 29.97 in - East 9.2 mph 20.7 mph N/A   Unknown
6:35 PM 85.3 °F 90.1 °F 70.5 °F 61% 29.98 in 10.0 mi East 10.4 mph 18.4 mph N/A   Unknown
6:55 PM 83.8 °F 88.3 °F 70.3 °F 64% 29.99 in 10.0 mi East 8.1 mph - N/A   Unknown
7:15 PM 82.6 °F 86.1 °F 69.3 °F 64% 29.99 in 10.0 mi East 11.5 mph - N/A   Unknown
7:35 PM 81.5 °F 84.9 °F 69.8 °F 67% 30.00 in 10.0 mi ENE 8.1 mph 18.4 mph N/A   Unknown
7:55 PM 80.6 °F 84.1 °F 70.5 °F 71% 30.00 in 10.0 mi ENE 8.1 mph - N/A   Clear
8:15 PM 80.1 °F 83.4 °F 70.7 °F 73% 30.01 in 10.0 mi ENE 6.9 mph - N/A   Unknown
8:35 PM 79.7 °F - 69.8 °F 72% 30.01 in 10.0 mi ENE 9.2 mph - N/A   Unknown
8:55 PM 79.2 °F - 69.4 °F 72% 30.01 in 10.0 mi ENE 6.9 mph - N/A   Unknown
9:15 PM 78.4 °F - 69.6 °F 74% 30.01 in 10.0 mi ENE 6.9 mph - N/A   Clear
9:35 PM 77.9 °F - 70.0 °F 76% 30.02 in 10.0 mi ENE 6.9 mph - N/A   Clear
9:55 PM 77.2 °F - 70.3 °F 79% 30.02 in 10.0 mi ENE 5.8 mph - N/A   Unknown
10:15 PM 76.6 °F - 70.5 °F 81% 30.02 in 10.0 mi ENE 4.6 mph - N/A   Unknown
10:35 PM 76.3 °F - 70.9 °F 83% 30.02 in 10.0 mi NNE 4.6 mph - N/A   Unknown
10:55 PM 75.2 °F - 71.6 °F 89% 30.02 in 10.0 mi NE 3.5 mph - N/A   Unknown
11:15 PM 75.2 °F - 70.9 °F 86% 30.02 in 10.0 mi NE 3.5 mph - N/A   Unknown
11:35 PM 74.8 °F - 71.1 °F 88% 30.01 in 10.0 mi East 3.5 mph - N/A   Unknown
11:55 PM 74.5 °F - 71.2 °F 90% 30.01 in 10.0 mi East 4.6 mph - N/A   Unknown